User: anonymous   Login
Location: Street
(51.1247°N, 2.7429°W)
Time: 14:33:36
(UTC+00:00)
Language:

N. Korean satellite - Orbit

View from above orbital plane
View from above orbital plane
View from above satellite
View from above satellite

Ground track
Ground track

The orbit data is extracted from the following two-line orbital elements,

1 39026U 12072A   20334.90729628 +.00004987 +00000-0 +17517-3 0  9999
2 39026 097.2322 326.9472 0037299 018.1827 342.0737 15.29176300442524
Epoch (UTC): 29 November 2020 21:46:30
Eccentricity: 0.0037299
inclination: 97.2322°
perigee height: 453 km
apogee height: 504 km
right ascension of ascending node: 326.9472°
argument of perigee: 18.1827°
revolutions per day: 15.29176300
mean anomaly at epoch: 342.0737°
orbit number at epoch: 44252

The dashed part of the orbit path shows where the satellite is in the earth's shadow,  

DLR